Orbital Elements at Epoch 2459200.5 (2020-Dec-17.0) TDB
Reference: JPL 12 (heliocentric ecliptic J2000)
Element | Value | Uncertainty (1-sigma) | Units |
e | .03847707649173353 | 6.6381e-08 | |
a | 2.71152816538995 | 2.4414e-08 | au |
q | 2.607196488760751 | 1.8448e-07 | au |
i | 2.038889446750798 | 7.1252e-06 | deg |
node | 181.0881601842949 | 0.00014456 | deg |
peri | 181.9568385106086 | 0.00016024 | deg |
M | 318.258647004866 | 7.0145e-05 | deg |
tp | 2459389.596559891083 (2021-Jun-24.09655989) | 0.00031846 | TDB |
period | 1630.87098706948 4.47 | 2.2026e-05 6.03e-08 | d yr |
n | .2207409432470717 | 2.9813e-09 | deg/d |
Q | 2.815859842019149 | 2.5354e-08 | au |
|
| | Orbit Determination Parameters
Additional Information
|